Date,TemperatureHighF,TemperatureAvgF,TemperatureLowF,DewpointHighF,DewpointAvgF,DewpointLowF,HumidityHigh,HumidityAvg,HumidityLow,PressureMaxIn,PressureMinIn,WindSpeedMaxMPH,WindSpeedAvgMPH,GustSpeedMaxMPH,PrecipitationSumIn
2013-10-1,60.7,53.7,47.9,52.0,49.2,45.0,95,85,68,29.81,29.73,12,5,0,0.11
2013-10-2,58.7,55.5,52.2,58.0,53.9,51.0,97,94,89,29.75,29.65,13,3,0,0.55
2013-10-3,64.1,61.6,58.4,63.0,60.5,58.0,98,96,92,29.65,29.47,8,1,0,1.10
2013-10-4,63.1,58.3,54.6,59.0,56.9,53.0,98,95,84,29.78,29.47,11,4,0,0.11
2013-10-5,60.3,56.1,51.9,56.0,53.5,51.0,96,91,81,30.03,29.79,13,4,0,0.03
2013-10-6,62.8,59.0,56.1,61.0,57.1,55.0,96,93,88,30.04,30.00,16,5,0,0.05
2013-10-7,64.3,60.6,58.2,60.0,58.5,57.0,97,93,86,30.02,29.93,17,7,0,0.17
2013-10-8,59.1,55.5,51.7,58.0,53.1,49.0,97,91,83,30.14,29.93,21,6,0,0.02
2013-10-9,52.3,48.8,41.9,50.0,44.2,36.0,95,84,70,30.14,29.94,26,9,0,0.09
2013-10-10,57.4,45.5,37.3,42.0,37.7,35.0,91,75,54,30.38,30.14,13,3,0,0.00
2013-10-11,52.1,47.2,40.2,45.0,42.2,38.0,95,83,75,30.45,30.42,6,3,0,0.00
2013-10-12,59.0,50.5,44.1,49.0,45.5,42.0,92,83,66,30.42,30.20,14,5,0,0.00
2013-10-13,55.5,50.0,43.5,49.0,46.3,42.0,94,87,77,30.21,29.98,10,4,0,0.00
2013-10-14,58.3,51.0,47.3,53.0,48.6,46.0,98,91,77,29.98,29.87,10,4,0,0.02
2013-10-15,56.9,49.3,42.2,50.0,46.2,41.0,96,89,78,29.93,29.86,12,2,0,0.00
2013-10-16,51.3,45.5,38.6,49.0,44.4,38.0,100,95,90,29.91,29.54,9,3,0,0.42
2013-10-17,54.9,49.7,45.3,54.0,48.9,45.0,98,97,94,29.90,29.60,14,2,0,0.28
2013-10-18,53.4,50.0,47.3,53.0,49.4,47.0,98,97,97,29.92,29.58,9,3,0,0.57
2013-10-19,57.8,54.5,52.6,57.0,53.9,52.0,99,98,97,29.58,29.37,6,1,0,0.72
2013-10-20,57.4,53.7,50.7,56.0,52.9,50.0,98,97,93,29.41,29.31,11,2,0,0.35
2013-10-21,55.8,53.4,51.9,54.0,52.2,51.0,98,96,92,29.45,29.18,11,3,0,0.63
2013-10-22,59.1,57.4,52.8,58.0,55.8,52.0,99,94,87,29.18,29.01,12,4,0,0.39
2013-10-23,57.2,52.6,46.7,55.0,49.4,42.0,96,89,67,29.54,28.93,24,7,0,0.06
2013-10-24,56.1,49.0,43.9,49.0,45.7,41.0,94,88,73,29.82,29.55,8,3,0,0.02
2013-10-25,56.5,50.7,47.1,54.0,48.9,45.0,97,94,91,29.75,29.25,14,5,0,0.92
2013-10-26,54.6,51.7,48.5,53.0,49.4,46.0,96,92,82,29.38,29.08,16,5,0,0.22
2013-10-27,53.4,51.1,49.8,50.0,48.3,46.0,95,90,84,29.08,28.80,20,9,0,0.63
2013-10-28,50.9,48.6,45.0,49.0,46.7,44.0,96,92,85,29.32,28.84,13,5,0,0.44
2013-10-29,51.3,45.8,41.6,48.0,43.5,40.0,95,91,83,29.84,29.33,13,4,0,0.10
2013-10-30,53.8,47.0,36.5,53.0,44.8,35.0,98,92,85,29.86,29.54,23,5,0,0.34
2013-10-31,53.0,49.0,45.7,48.0,45.4,42.0,91,87,80,29.76,29.56,18,8,0,0.07